Regional Weather Roundup
Issued by NWS

Home | Current Version | Previous Version | Graphics & Text | Print | Product List | Glossary Off
Versions: 1 2 3 4 5 6 7 8 9 10 11 12 13 14 15 16 17 18 19 20 21 22 23 24 25 26 27 28 29 30 31 32 33 34 35 36 37 38 39 40 41 42 43 44 45 46 47 48 49 50

000
ASUS43 KDTX 040401
RWRMI
MICHIGAN HOURLY REGIONAL WEATHER ROUNDUP
NATIONAL WEATHER SERVICE DETROIT/PONTIAC MI
1200 AM EDT FRI SEP 04 2015

NOTE: "FAIR" INDICATES FEW OR NO CLOUDS BELOW 12,000 FEET WITH NO
SIGNIFICANT WEATHER AND/OR OBSTRUCTION TO VISIBILITY.

MIZ047>049-052>055-059>063-066>070-074>076-081>083-040500-
SOUTHEAST LOWER MICHIGAN

CITY           SKY/WX    TMP DP  RH WIND       PRES   REMARKS
ADRIAN         CLOUDY    71  70  96 E9        29.94S FOG
ALMA           FOG       67  67 100 E3        29.93S VSB 1/4
ANN ARBOR      CLOUDY    67  65  93 E7        29.95S
BAD AXE        CLOUDY    67  66  95 CALM      29.96F
CARO           CLOUDY    66  65  97 E3        29.93F
DETROIT CITY   CLOUDY    68  66  93 S7        29.95S
DETROIT        CLOUDY    68  66  93 SE8       29.96S
FLINT          CLOUDY    71  67  87 S8        29.94R
GROSSE ILE     LGT RAIN  70  66  88 E8        29.96R
HILLSDALE      CLOUDY    71  71 100 NW14G22   29.97R
HOWELL         CLOUDY    67  65  96 SE7       29.95S

CITY           SKY/WX    TMP DP  RH WIND       PRES   REMARKS
JACKSON        CLOUDY    71  70  96 CALM      29.94S
LAMBERTVILLE   HVY RAIN  72  68  88 E7        29.95R
LANSING        CLOUDY    69  67  93 SE6       29.92F
LAPEER         CLOUDY    67  66  99 SE5       29.95S FOG
MASON          CLOUDY    69  66  91 CALM      29.93F FOG
MONROE         LGT RAIN  68  67  94 E8        29.95F
MT. CLEMENS    CLOUDY    69  68  97 S12       29.93F
PONTIAC        CLOUDY    67  66  97 S9        29.95S THUNDER
PORT HOPE        N/A     68  67  96 CALM      29.95S
PORT HURON     RAIN      66  66 100 CALM      29.97R
TRI CITIES     CLOUDY    68  65  90 E6        29.94S
MIDLAND        CLOUDY    67  65  94 E3        29.93S
TROY           CLOUDY    69  68  98 SE6       29.96F
SAGINAW HB     CLOUDY    64  64 100 NE3       29.93S
$$
MIZ043>046-050>051-056>058-064>065-071>073-077>080-040500-
SOUTHWEST LOWER MICHIGAN

CITY           SKY/WX    TMP DP  RH WIND       PRES   REMARKS
BATTLE CREEK   MOCLDY    74  70  87 W3        29.93F
BENTON HARBOR  MOCLDY    70  67  90 CALM      29.94R
BIG RAPIDS     CLOUDY    69  68  97 CALM      29.93R
COLDWATER      MOCLDY    73  71  96 CALM      29.92F
FREMONT        CLOUDY    67  67 100 N5        29.92S
HOLLAND        PTCLDY    69  66  90 NW5       29.93S
GRAND RAPIDS   MOCLDY    69  67  93 NW6       29.93R
IONIA          FAIR      70  69  97 NW3       29.91F
KALAMAZOO      PTCLDY    73  66  78 CALM      29.93S
LUDINGTON      CLEAR     68  66  93 N5        29.93R FOG
MARSHALL       CLOUDY    73  71  92 CALM      29.92S
MOUNT PLEASANT RAIN      68  66  93 E3        29.93S
MUSKEGON       PTCLDY    68  65  90 N3        29.93R
SOUTH HAVEN    MOCLDY    69  65  88 CALM      29.94S
$$
MIZ016>042-040500-
NORTHERN LOWER MICHIGAN

CITY           SKY/WX    TMP DP  RH WIND       PRES   REMARKS
ALPENA         MOCLDY    68  64  87 CALM      29.97F
BEAVER ISLAND  PTCLDY    66  64  94 E6        29.99R
BELLAIRE       CLOUDY    68  65  91 CALM      29.97R
CADILLAC       RAIN      67  66  97 NE9       29.96R
CHARLEVOIX     MOCLDY    68  67  96 E8        30.00R FOG
FRANKFORT      CLOUDY    69  66  91 E5        29.93S
GAYLORD        CLOUDY    67  67 100 E5        29.99S
GRAYLING       HVY RAIN  66  65  97 NE5       30.00R
HARBOR SPRINGS MOCLDY    66  65  94 E6        29.97S
HOUGHTON LAKE  CLOUDY    66  64  93 E8        29.97S
MANISTEE       CLOUDY    66  63  88 NE3       29.94R
OSCODA         CLOUDY    67  66  98 CALM      29.96R
PELLSTON       CLOUDY    66  65  96 N5        29.99S
ROGERS CITY    MOCLDY    66  64  93 CALM      30.00R FOG
TRAVERSE CITY  CLOUDY    69  66  90 E5        29.94R
$$
MIZ007>008-015-040500-
EASTERN UPPER MICHIGAN

CITY           SKY/WX    TMP DP  RH WIND       PRES   REMARKS
KINROSS        PTCLDY    66  64  94 N5        30.01R
MACKINAC ISLAN PTCLDY    66  65  97 NE6       29.99S FOG
NEWBERRY       PTCLDY    65  62  90 N5        30.01R
S. S. MARIE    CLEAR     64  61  90 CALM      30.00S
$$
MIZ004>006-011>014-085-040500-
CENTRAL UPPER MICHIGAN

CITY           SKY/WX    TMP DP  RH WIND       PRES   REMARKS
MANISTIQUE     CLEAR     63  61  94 N5        30.00R
ESCANABA       CLEAR     64  61  88 N6        29.97S
MENOMINEE      CLEAR     64  61  88 N3        29.97R
SAWYER-GWINN   CLEAR     64  58  80 NE7       30.03S
$$
MIZ001>003-009>011-084-040500-
WESTERN UPPER MICHIGAN

CITY           SKY/WX    TMP DP  RH WIND       PRES   REMARKS
IRON MOUNTAIN  CLEAR     62  58  86 CALM      30.01R
HOUGHTON       CLEAR     62  57  83 E7        30.03R
COPPER HARBOR    N/A     63  58  83 SW6       30.01F
IRONWOOD       CLEAR     63  61  94 E5        29.98S
$$

ABBREVIATIONS USED IN REMARKS
   TC - TEMPERATURE IN CELSIUS
  WCI - WIND CHILL INDEX
   HX - HEAT INDEX
  VSB - VISIBILITY




USA.gov is the U.S. government's official web portal to all federal, state and local government web resources and services.